TimeCDT,TemperatureF,Dew PointF,Humidity,Sea Level PressureIn,VisibilityMPH,Wind Direction,Wind SpeedMPH,Gust SpeedMPH,PrecipitationIn,Events,Conditions,WindDirDegrees,DateUTC
12:15 AM,67.3,59.2,75,30.07,10.0,ESE,5.8,-,N/A,,Clear,120,2013-08-16 05:15:00
12:55 AM,66.0,57.9,75,30.06,10.0,ESE,6.9,-,N/A,,Clear,110,2013-08-16 05:55:00
1:15 AM,66.2,57.9,75,30.06,10.0,ESE,5.8,-,N/A,,Clear,110,2013-08-16 06:15:00
1:35 AM,66.0,57.9,75,30.06,10.0,ESE,5.8,-,N/A,,Clear,120,2013-08-16 06:35:00
1:55 AM,65.8,58.1,76,30.06,10.0,SE,3.5,-,N/A,,Clear,130,2013-08-16 06:55:00
2:15 AM,65.8,58.5,77,30.07,10.0,SE,3.5,-,N/A,,Clear,130,2013-08-16 07:15:00
2:35 AM,65.8,58.6,78,30.07,10.0,ESE,3.5,-,N/A,,Clear,120,2013-08-16 07:35:00
2:55 AM,65.8,59.0,79,30.07,10.0,ESE,3.5,-,N/A,,Scattered Clouds,120,2013-08-16 07:55:00
3:15 AM,64.8,58.3,79,30.07,10.0,ESE,3.5,-,N/A,,Mostly Cloudy,110,2013-08-16 08:15:00
3:35 AM,64.0,58.1,81,30.06,10.0,ESE,3.5,-,N/A,,Scattered Clouds,110,2013-08-16 08:35:00
3:55 AM,63.5,58.8,85,30.06,10.0,ESE,3.5,-,N/A,,Clear,120,2013-08-16 08:55:00
4:15 AM,63.5,58.8,85,30.07,10.0,East,4.6,-,N/A,,Clear,90,2013-08-16 09:15:00
4:35 AM,63.5,59.0,85,30.06,10.0,ESE,3.5,-,N/A,,Clear,110,2013-08-16 09:35:00
4:55 AM,63.5,59.4,86,30.07,10.0,Calm,Calm,-,N/A,,Clear,0,2013-08-16 09:55:00
5:15 AM,63.5,60.1,89,30.06,10.0,ESE,3.5,-,N/A,,Clear,110,2013-08-16 10:15:00
5:35 AM,62.4,60.3,93,30.07,10.0,East,3.5,-,N/A,,Clear,100,2013-08-16 10:35:00
5:55 AM,62.1,61.7,99,30.07,10.0,East,3.5,-,N/A,,Clear,90,2013-08-16 10:55:00
6:15 AM,61.9,61.9,100,30.07,10.0,East,5.8,-,N/A,,Clear,80,2013-08-16 11:15:00
6:35 AM,61.3,61.5,100,30.07,10.0,East,4.6,-,N/A,,Scattered Clouds,90,2013-08-16 11:35:00
6:55 AM,61.9,61.9,100,30.08,10.0,Calm,Calm,-,N/A,,Scattered Clouds,0,2013-08-16 11:55:00
7:15 AM,61.9,61.9,100,30.09,10.0,Calm,Calm,-,N/A,,Scattered Clouds,0,2013-08-16 12:15:00
7:35 AM,61.9,62.1,100,30.10,10.0,Calm,Calm,-,N/A,,Scattered Clouds,0,2013-08-16 12:35:00
7:55 AM,62.6,62.4,99,30.11,10.0,Calm,Calm,-,N/A,,Scattered Clouds,0,2013-08-16 12:55:00
8:15 AM,63.5,61.7,94,30.12,10.0,ESE,3.5,-,N/A,,Clear,110,2013-08-16 13:15:00
8:35 AM,64.8,61.2,88,30.12,10.0,East,3.5,-,N/A,,Clear,100,2013-08-16 13:35:00
8:55 AM,65.8,60.4,83,30.12,10.0,East,3.5,-,N/A,,Clear,100,2013-08-16 13:55:00
9:15 AM,67.8,60.4,77,30.12,10.0,ESE,3.5,-,N/A,,Clear,110,2013-08-16 14:15:00
9:35 AM,68.4,60.1,75,30.12,10.0,ESE,3.5,-,N/A,,Clear,110,2013-08-16 14:35:00
9:55 AM,70.3,60.8,72,30.12,10.0,East,4.6,-,N/A,,Clear,90,2013-08-16 14:55:00
10:15 AM,70.9,60.3,69,30.12,10.0,East,4.6,-,N/A,,Clear,100,2013-08-16 15:15:00
10:35 AM,71.2,58.1,63,30.12,10.0,ESE,5.8,-,N/A,,Clear,120,2013-08-16 15:35:00
10:55 AM,72.3,57.0,59,30.13,10.0,SE,5.8,-,N/A,,Clear,140,2013-08-16 15:55:00
11:15 AM,72.9,57.6,59,30.13,10.0,SE,4.6,-,N/A,,Clear,130,2013-08-16 16:15:00
11:35 AM,75.6,59.2,57,30.13,10.0,ESE,4.6,-,N/A,,Clear,110,2013-08-16 16:35:00
11:55 AM,76.1,58.8,55,30.13,10.0,NE,4.6,-,N/A,,Clear,50,2013-08-16 16:55:00
12:15 PM,76.1,57.9,53,30.13,10.0,SE,3.5,-,N/A,,Clear,130,2013-08-16 17:15:00
12:35 PM,76.1,58.1,54,30.12,10.0,ESE,5.8,-,N/A,,Scattered Clouds,120,2013-08-16 17:35:00
12:55 PM,76.1,58.5,54,30.12,10.0,East,5.8,-,N/A,,Scattered Clouds,100,2013-08-16 17:55:00
1:15 PM,76.1,57.9,53,30.11,10.0,ENE,3.5,-,N/A,,Clear,70,2013-08-16 18:15:00
1:35 PM,76.3,57.6,52,30.11,10.0,ESE,3.5,-,N/A,,Scattered Clouds,120,2013-08-16 18:35:00
1:55 PM,76.1,55.9,50,30.11,10.0,SSE,4.6,-,N/A,,Clear,150,2013-08-16 18:55:00
2:15 PM,77.2,56.5,49,30.11,10.0,East,4.6,-,N/A,,Clear,100,2013-08-16 19:15:00
2:35 PM,77.2,57.2,50,30.11,10.0,ENE,6.9,-,N/A,,Scattered Clouds,70,2013-08-16 19:35:00
2:55 PM,76.3,56.8,51,30.11,10.0,ENE,5.8,-,N/A,,Mostly Cloudy,70,2013-08-16 19:55:00
3:15 PM,77.0,57.6,51,30.10,10.0,East,8.1,-,N/A,,Scattered Clouds,100,2013-08-16 20:15:00
3:35 PM,78.4,57.9,49,30.10,10.0,East,8.1,-,N/A,,Scattered Clouds,90,2013-08-16 20:35:00
3:55 PM,78.3,59.4,52,30.10,10.0,ENE,9.2,-,N/A,,Mostly Cloudy,70,2013-08-16 20:55:00
4:15 PM,77.0,58.1,52,30.10,10.0,ENE,6.9,-,N/A,,Scattered Clouds,60,2013-08-16 21:15:00
4:35 PM,77.5,59.0,53,30.10,10.0,East,9.2,-,N/A,,Scattered Clouds,80,2013-08-16 21:35:00
4:55 PM,76.5,58.5,54,30.11,10.0,East,5.8,-,N/A,,Scattered Clouds,90,2013-08-16 21:55:00
5:15 PM,77.0,58.8,53,30.10,10.0,East,6.9,-,N/A,,Mostly Cloudy,80,2013-08-16 22:15:00
5:35 PM,76.1,58.8,55,30.10,10.0,East,8.1,-,N/A,,Scattered Clouds,80,2013-08-16 22:35:00
5:55 PM,76.1,58.3,54,30.10,10.0,ENE,9.2,-,N/A,,Clear,70,2013-08-16 22:55:00
6:15 PM,76.1,58.5,54,30.11,10.0,East,8.1,-,N/A,,Scattered Clouds,80,2013-08-16 23:15:00
6:35 PM,76.1,59.5,56,30.11,10.0,ENE,6.9,-,N/A,,Scattered Clouds,70,2013-08-16 23:35:00
6:55 PM,76.1,60.6,59,30.11,10.0,East,9.2,-,N/A,,Clear,80,2013-08-16 23:55:00
7:15 PM,76.1,60.8,59,30.11,10.0,ENE,6.9,-,N/A,,Clear,70,2013-08-17 00:15:00
7:35 PM,74.7,60.6,61,30.12,10.0,East,6.9,-,N/A,,Clear,80,2013-08-17 00:35:00
7:55 PM,72.1,59.9,65,30.12,10.0,ENE,5.8,-,N/A,,Clear,70,2013-08-17 00:55:00
8:15 PM,70.9,59.4,67,30.12,10.0,East,5.8,-,N/A,,Clear,90,2013-08-17 01:15:00
8:35 PM,70.9,60.1,69,30.13,10.0,East,6.9,-,N/A,,Clear,80,2013-08-17 01:35:00
8:55 PM,70.9,61.2,71,30.14,10.0,East,3.5,-,N/A,,Clear,80,2013-08-17 01:55:00
9:15 PM,70.9,62.8,75,30.14,10.0,East,5.8,-,N/A,,Clear,90,2013-08-17 02:15:00
9:35 PM,69.3,62.6,79,30.14,10.0,East,3.5,-,N/A,,Clear,90,2013-08-17 02:35:00
9:55 PM,68.4,62.2,81,30.15,10.0,East,4.6,-,N/A,,Clear,90,2013-08-17 02:55:00
10:15 PM,68.2,61.9,80,30.15,10.0,Calm,Calm,-,N/A,,Clear,0,2013-08-17 03:15:00
10:35 PM,66.4,61.0,83,30.15,10.0,Calm,Calm,-,N/A,,Clear,0,2013-08-17 03:35:00
10:55 PM,65.7,61.5,86,30.15,10.0,Calm,Calm,-,N/A,,Clear,0,2013-08-17 03:55:00
11:15 PM,63.9,63.1,97,30.15,10.0,Calm,Calm,-,N/A,,Clear,0,2013-08-17 04:15:00
11:35 PM,-9999,-9999,N/A,30.15,10.0,Calm,Calm,-,N/A,,Clear,0,2013-08-17 04:35:00
11:55 PM,62.8,63.0,100,30.16,10.0,Calm,Calm,-,N/A,,Clear,0,2013-08-17 04:55:00